DLH499L MMMX-EDDF

Flight info

Callsign DLH499L
Flight time N/A
Altitude 33000
Route IKLAN3B IKLAN UT140 TAM UM575 CLONN M575 TBD/N0488F350 DCT CATLN DCT MGM DCT LGC DCT SPA DCT RBV Q22 FOXWD DCT MIILS N575A TUDEP/M083F370 DCT 52N050W 54N040W 55N030W 55N020W DCT DOGAL DCT BEXET/N0471F370 DCT DIRUM/N0475F390 DCT MORAG DCT NUCHU L607 KONAN DCT KOK DCT REMBA DCT SPI T180 NIVNU T847 IMCOM IMCOM1D
Aircraft A388/J-SADE2E3FGHIJ3J4J5M1RWXY/LB1D1

Departure

Time 2026-05-08 08:30
Airport Mexico City Benito Juárez International Airport (MMMX)

Arrival

Time N/A
Airport Frankfurt Main Airport (EDDF)
Time Latitude Longitude Altitude Speed Heading
2026-05-08 07:29 19.43725 -99.07699 7308 ft 0 kts 329°
2026-05-08 08:11 19.43707 -99.07689 7308 ft 4 kts 341°
2026-05-08 08:11 19.43683 -99.07685 7308 ft 4 kts
2026-05-08 08:11 19.43661 -99.07692 7308 ft 4 kts 32°
2026-05-08 08:12 19.43643 -99.07710 7308 ft 4 kts 53°
2026-05-08 08:12 19.43634 -99.07724 7308 ft 1 kts 59°
2026-05-08 08:16 19.43635 -99.07722 7308 ft 1 kts 59°
2026-05-08 08:17 19.43642 -99.07710 7308 ft 4 kts 59°
2026-05-08 08:17 19.43670 -99.07660 7308 ft 11 kts 59°
2026-05-08 08:17 19.43721 -99.07569 7308 ft 16 kts 59°
2026-05-08 08:17 19.43774 -99.07474 7308 ft 14 kts 59°
2026-05-08 08:18 19.43823 -99.07388 7307 ft 13 kts 59°
2026-05-08 08:18 19.43860 -99.07321 7307 ft 9 kts 64°
2026-05-08 08:18 19.43863 -99.07268 7308 ft 6 kts 119°
2026-05-08 08:18 19.43834 -99.07232 7308 ft 7 kts 135°
2026-05-08 08:19 19.43794 -99.07194 7308 ft 10 kts 139°
2026-05-08 08:19 19.43729 -99.07132 7308 ft 14 kts 138°
2026-05-08 08:19 19.43657 -99.07065 7307 ft 13 kts 138°
2026-05-08 08:19 19.43591 -99.07002 7308 ft 13 kts 138°
2026-05-08 08:20 19.43523 -99.06938 7307 ft 12 kts 138°
2026-05-08 08:20 19.43461 -99.06879 7308 ft 12 kts 138°
2026-05-08 08:20 19.43404 -99.06866 7307 ft 7 kts 221°
2026-05-08 08:20 19.43376 -99.06911 7307 ft 8 kts 239°
2026-05-08 08:21 19.43344 -99.06968 7308 ft 10 kts 239°
2026-05-08 08:21 19.43307 -99.07034 7308 ft 11 kts 239°
2026-05-08 08:21 19.43272 -99.07108 7307 ft 12 kts 257°
2026-05-08 08:21 19.43260 -99.07195 7308 ft 12 kts 262°
2026-05-08 08:22 19.43237 -99.07283 7308 ft 13 kts 240°
2026-05-08 08:22 19.43189 -99.07368 7308 ft 14 kts 239°
2026-05-08 08:22 19.43138 -99.07457 7308 ft 14 kts 239°
2026-05-08 08:22 19.43085 -99.07548 7308 ft 15 kts 238°
2026-05-08 08:23 19.43031 -99.07643 7308 ft 15 kts 238°
2026-05-08 08:23 19.42973 -99.07743 7308 ft 16 kts 233°
2026-05-08 08:23 19.42889 -99.07819 7308 ft 16 kts 210°
2026-05-08 08:23 19.42807 -99.07869 7308 ft 10 kts 207°
2026-05-08 08:24 19.42742 -99.07878 7308 ft 9 kts 155°
2026-05-08 08:24 19.42701 -99.07875 7308 ft 5 kts 215°
2026-05-08 08:24 19.42674 -99.07904 7308 ft 6 kts 232°
2026-05-08 08:24 19.42647 -99.07949 7308 ft 8 kts 238°
2026-05-08 08:25 19.42615 -99.08004 7308 ft 9 kts 239°
2026-05-08 08:25 19.42578 -99.08068 7308 ft 11 kts 239°
2026-05-08 08:25 19.42538 -99.08140 7308 ft 12 kts 239°
2026-05-08 08:25 19.42496 -99.08218 7308 ft 11 kts 242°
2026-05-08 08:26 19.42502 -99.08272 7308 ft 7 kts 322°
2026-05-08 08:26 19.42545 -99.08305 7308 ft 8 kts 316°
2026-05-08 08:26 19.42572 -99.08353 7308 ft 8 kts 291°
2026-05-08 08:26 19.42596 -99.08414 7308 ft 9 kts 293°
2026-05-08 08:27 19.42624 -99.08482 7308 ft 11 kts 293°
2026-05-08 08:27 19.42653 -99.08553 7308 ft 10 kts 294°
2026-05-08 08:27 19.42664 -99.08574 7308 ft 2 kts 309°
2026-05-08 08:27 19.42668 -99.08579 7308 ft 1 kts 321°
2026-05-08 08:28 19.42672 -99.08583 7309 ft 2 kts 322°
2026-05-08 08:28 19.42688 -99.08587 7310 ft 5 kts 13°
2026-05-08 08:28 19.42704 -99.08575 7309 ft 0 kts 60°
2026-05-08 08:29 19.42715 -99.08555 7309 ft 13 kts 59°
2026-05-08 08:29 19.42866 -99.08287 7308 ft 76 kts 59°
2026-05-08 08:29 19.43243 -99.07615 7310 ft 132 kts 59°
2026-05-08 08:30 19.43774 -99.06664 7309 ft 168 kts 59°
2026-05-08 08:30 19.44416 -99.05535 7509 ft 182 kts 59°
2026-05-08 08:30 19.45813 -99.03259 8398 ft 190 kts 58°
2026-05-08 08:31 19.46538 -99.02073 8866 ft 192 kts 58°
2026-05-08 08:31 19.47252 -99.00886 9323 ft 187 kts 58°
2026-05-08 08:31 19.47939 -98.99731 9494 ft 187 kts 59°
2026-05-08 08:31 19.48643 -98.98533 9530 ft 195 kts 59°
2026-05-08 08:32 19.49375 -98.97288 9540 ft 202 kts 60°
2026-05-08 08:32 19.50103 -98.96013 9555 ft 207 kts 61°
2026-05-08 08:32 19.50839 -98.94688 9568 ft 210 kts 60°
2026-05-08 08:32 19.51593 -98.93328 9538 ft 217 kts 61°
2026-05-08 08:33 19.52365 -98.91941 9546 ft 220 kts 61°
2026-05-08 08:33 19.53168 -98.90535 9560 ft 224 kts 57°
2026-05-08 08:33 19.54174 -98.89258 9561 ft 227 kts 48°
2026-05-08 08:33 19.55270 -98.88031 9551 ft 230 kts 49°
2026-05-08 08:34 19.56363 -98.86778 9541 ft 233 kts 49°
2026-05-08 08:34 19.57467 -98.85504 9538 ft 240 kts 49°
2026-05-08 08:34 19.58607 -98.84185 9491 ft 246 kts 49°
2026-05-08 08:34 19.59779 -98.82829 9507 ft 252 kts 49°
2026-05-08 08:35 19.60977 -98.81446 9535 ft 257 kts 49°
2026-05-08 08:35 19.62193 -98.80044 9563 ft 259 kts 49°
2026-05-08 08:35 19.63399 -98.78655 9814 ft 252 kts 49°
2026-05-08 08:35 19.64557 -98.77321 10139 ft 241 kts 49°
2026-05-08 08:36 19.65686 -98.76015 10455 ft 240 kts 49°
2026-05-08 08:36 19.66813 -98.74710 10831 ft 239 kts 49°
2026-05-08 08:36 19.67929 -98.73419 11240 ft 236 kts 48°
2026-05-08 08:36 19.69016 -98.72161 11748 ft 233 kts 47°
2026-05-08 08:37 19.70142 -98.70939 12139 ft 229 kts 37°
2026-05-08 08:37 19.71529 -98.70107 12410 ft 234 kts 17°
2026-05-08 08:37 19.73150 -98.69797 12507 ft 242 kts 359°
2026-05-08 08:37 19.74862 -98.69733 12602 ft 251 kts
2026-05-08 08:38 19.76647 -98.69627 12671 ft 260 kts
2026-05-08 08:38 19.78452 -98.69505 12733 ft 266 kts
2026-05-08 08:38 19.80317 -98.69376 12780 ft 272 kts
2026-05-08 08:38 19.82274 -98.69242 12861 ft 291 kts
2026-05-08 08:39 19.84343 -98.69103 13029 ft 305 kts
2026-05-08 08:39 19.86515 -98.68956 13138 ft 322 kts
2026-05-08 08:39 19.88807 -98.68803 13280 ft 337 kts
2026-05-08 08:39 19.91167 -98.68644 13418 ft 352 kts
2026-05-08 08:40 19.93662 -98.68476 13643 ft 364 kts
2026-05-08 08:40 19.96179 -98.68646 14158 ft 363 kts 346°
2026-05-08 08:40 19.98549 -98.69554 14574 ft 364 kts 329°
2026-05-08 08:40 20.00643 -98.71077 15008 ft 367 kts 322°
2026-05-08 08:41 20.02714 -98.72705 15416 ft 372 kts 322°
2026-05-08 08:41 20.04805 -98.74322 15828 ft 376 kts 322°
2026-05-08 08:41 20.06921 -98.75951 16231 ft 380 kts 322°
2026-05-08 08:41 20.09073 -98.77610 16664 ft 383 kts 322°
2026-05-08 08:42 20.11241 -98.79282 17090 ft 387 kts 322°
2026-05-08 08:42 20.13429 -98.80973 17509 ft 391 kts 322°
2026-05-08 08:42 20.15638 -98.82682 17901 ft 395 kts 322°
2026-05-08 08:42 20.17863 -98.84420 18307 ft 398 kts 322°
2026-05-08 08:43 20.20104 -98.86180 18680 ft 401 kts 322°
2026-05-08 08:43 20.22411 -98.87867 19048 ft 406 kts 330°
2026-05-08 08:43 20.25056 -98.88960 19423 ft 411 kts 346°
2026-05-08 08:43 20.27893 -98.89299 19882 ft 413 kts 360°
2026-05-08 08:44 20.30787 -98.89241 20185 ft 417 kts
2026-05-08 08:44 20.33665 -98.89193 20465 ft 421 kts 360°
2026-05-08 08:44 20.36603 -98.89152 20744 ft 424 kts 360°
2026-05-08 08:44 20.39563 -98.89113 21030 ft 426 kts
2026-05-08 08:45 20.42533 -98.88787 21297 ft 430 kts 11°
2026-05-08 08:45 20.45415 -98.87889 21541 ft 434 kts 22°
2026-05-08 08:45 20.48138 -98.86483 21838 ft 436 kts 28°
2026-05-08 08:45 20.50838 -98.84980 22090 ft 439 kts 28°
2026-05-08 08:46 20.53568 -98.83490 22322 ft 442 kts 27°
2026-05-08 08:46 20.56318 -98.81993 22647 ft 444 kts 27°
2026-05-08 08:46 20.59047 -98.80509 22829 ft 448 kts 27°
2026-05-08 08:46 20.61825 -98.78992 23106 ft 450 kts 27°
2026-05-08 08:47 20.64620 -98.77462 23370 ft 453 kts 27°
2026-05-08 08:47 20.67437 -98.75919 23615 ft 456 kts 27°
2026-05-08 08:47 20.70261 -98.74372 23893 ft 456 kts 27°
2026-05-08 08:47 20.73087 -98.72821 24167 ft 458 kts 27°
2026-05-08 08:48 20.75925 -98.71265 24452 ft 458 kts 27°
2026-05-08 08:48 20.78750 -98.69716 24806 ft 456 kts 27°
2026-05-08 08:48 20.81581 -98.68162 25027 ft 458 kts 27°
2026-05-08 08:48 20.84421 -98.66602 25276 ft 460 kts 27°
2026-05-08 08:49 20.87272 -98.65036 25510 ft 461 kts 27°
2026-05-08 08:49 20.90137 -98.63461 25736 ft 463 kts 27°
2026-05-08 08:49 20.92971 -98.61903 25974 ft 464 kts 26°
2026-05-08 08:49 20.95866 -98.60309 26121 ft 468 kts 26°
2026-05-08 08:50 20.98767 -98.58711 26380 ft 470 kts 26°
2026-05-08 08:50 21.01674 -98.57110 26629 ft 471 kts 26°
2026-05-08 08:50 21.04595 -98.55502 26893 ft 472 kts 26°
2026-05-08 08:50 21.07526 -98.53886 27119 ft 475 kts 26°
2026-05-08 08:51 21.10466 -98.52265 27393 ft 476 kts 26°
2026-05-08 08:51 21.13418 -98.50637 27674 ft 477 kts 26°
2026-05-08 08:51 21.16377 -98.49004 27937 ft 479 kts 26°
2026-05-08 08:51 21.19348 -98.47364 28215 ft 481 kts 26°
2026-05-08 08:52 21.22328 -98.45718 28519 ft 483 kts 26°
2026-05-08 08:52 21.25322 -98.44063 28814 ft 485 kts 25°
2026-05-08 08:52 21.28291 -98.42422 29109 ft 487 kts 25°
2026-05-08 08:52 21.31310 -98.40752 29423 ft 489 kts 25°
2026-05-08 08:53 21.34346 -98.39072 29729 ft 491 kts 25°
2026-05-08 08:53 21.37390 -98.37386 30031 ft 493 kts 25°
2026-05-08 08:53 21.40443 -98.35695 30301 ft 495 kts 25°
2026-05-08 08:53 21.43512 -98.33994 30585 ft 497 kts 25°
2026-05-08 08:54 21.46590 -98.32288 30847 ft 499 kts 25°
2026-05-08 08:54 21.49646 -98.30593 31118 ft 501 kts 25°
2026-05-08 08:54 21.52748 -98.28872 31398 ft 503 kts 25°
2026-05-08 08:54 21.55863 -98.27142 31668 ft 505 kts 25°
2026-05-08 08:55 21.58990 -98.25405 31942 ft 507 kts 25°
2026-05-08 08:55 21.62142 -98.23654 32148 ft 511 kts 25°
2026-05-08 08:55 21.65310 -98.21892 32423 ft 512 kts 25°
2026-05-08 08:55 21.68480 -98.20129 32693 ft 514 kts 25°
2026-05-08 08:56 21.71663 -98.18357 32896 ft 518 kts 25°
2026-05-08 08:56 21.74845 -98.16586 32887 ft 526 kts 25°
2026-05-08 08:56 21.81432 -98.12917 32884 ft 537 kts 25°
2026-05-08 08:57 21.88069 -98.09211 32884 ft 537 kts 25°
2026-05-08 08:57 21.94712 -98.05500 32891 ft 538 kts 25°
2026-05-08 08:58 22.01353 -98.01787 32883 ft 538 kts 25°
2026-05-08 08:58 22.07933 -97.98105 32882 ft 538 kts 25°
2026-05-08 08:59 22.14598 -97.94370 32888 ft 537 kts 25°
2026-05-08 08:59 22.21226 -97.90652 32883 ft 536 kts 25°
2026-05-08 09:00 22.27848 -97.86935 32891 ft 536 kts 25°
2026-05-08 09:00 22.34226 -97.82706 32875 ft 539 kts 30°
2026-05-08 09:01 22.40569 -97.78391 32882 ft 539 kts 30°
2026-05-08 09:01 22.46880 -97.74095 32881 ft 539 kts 30°
2026-05-08 09:02 22.53235 -97.69756 32884 ft 539 kts 30°
2026-05-08 09:02 22.59586 -97.65413 32889 ft 540 kts 30°
2026-05-08 09:03 22.65942 -97.61062 32874 ft 541 kts 30°
2026-05-08 09:03 22.72309 -97.56697 32889 ft 541 kts 30°
2026-05-08 09:04 22.78637 -97.52355 32899 ft 541 kts 30°
2026-05-08 09:04 22.85012 -97.47976 32901 ft 541 kts 30°
2026-05-08 09:05 22.91375 -97.43600 32894 ft 541 kts 30°
2026-05-08 09:05 22.97742 -97.39216 32882 ft 542 kts 30°
2026-05-08 09:06 23.04108 -97.34828 32886 ft 542 kts 30°
2026-05-08 09:06 23.10441 -97.30458 32892 ft 543 kts 30°
2026-05-08 09:07 23.16812 -97.26057 32890 ft 543 kts 30°
2026-05-08 09:07 23.23195 -97.21646 32893 ft 543 kts 30°
2026-05-08 09:08 23.29583 -97.17227 32895 ft 544 kts 30°
2026-05-08 09:08 23.35935 -97.12828 32899 ft 545 kts 30°
2026-05-08 09:09 23.42324 -97.08397 32897 ft 545 kts 30°
2026-05-08 09:09 23.48722 -97.03954 32897 ft 545 kts 30°
2026-05-08 09:10 23.55116 -96.99509 32901 ft 545 kts 30°
2026-05-08 09:10 23.61479 -96.95081 32893 ft 546 kts 30°
2026-05-08 09:11 23.67880 -96.90621 32893 ft 546 kts 30°
2026-05-08 09:11 23.74281 -96.86154 32895 ft 546 kts 30°
2026-05-08 09:12 23.80682 -96.81675 32900 ft 546 kts 30°
2026-05-08 09:12 23.87082 -96.77193 32899 ft 546 kts 30°
2026-05-08 09:13 23.93472 -96.72714 32903 ft 546 kts 30°
2026-05-08 09:13 23.99831 -96.68251 32892 ft 546 kts 30°
2026-05-08 09:14 24.06236 -96.63749 32891 ft 547 kts 30°
2026-05-08 09:14 24.12647 -96.59242 32894 ft 547 kts 30°
2026-05-08 09:15 24.17969 -96.55496 32899 ft 547 kts 30°
2026-05-08 09:15 24.24379 -96.50980 32897 ft 547 kts 30°
2026-05-08 09:16 24.31828 -96.45724 32895 ft 548 kts 29°
2026-05-08 09:16 24.37161 -96.41957 32902 ft 548 kts 30°
2026-05-08 09:17 24.43575 -96.37421 32905 ft 548 kts 30°
2026-05-08 09:17 24.49990 -96.32878 32906 ft 548 kts 30°
2026-05-08 09:18 24.56399 -96.28335 32904 ft 548 kts 30°
2026-05-08 09:18 24.62806 -96.23787 32901 ft 548 kts 30°
2026-05-08 09:19 24.69218 -96.19230 32902 ft 548 kts 30°
2026-05-08 09:19 24.75620 -96.14678 32902 ft 548 kts 30°
2026-05-08 09:20 24.81977 -96.10152 32901 ft 548 kts 30°
2026-05-08 09:20 24.88374 -96.05592 32910 ft 547 kts 30°
2026-05-08 09:21 24.94771 -96.01026 32905 ft 548 kts 29°
2026-05-08 09:23 25.17112 -95.85020 32907 ft 548 kts 29°
2026-05-08 09:23 25.23499 -95.80431 32891 ft 549 kts 29°
2026-05-08 09:24 25.29905 -95.75823 32900 ft 549 kts 29°
2026-05-08 09:24 25.36279 -95.71232 32902 ft 550 kts 29°
2026-05-08 09:25 25.42705 -95.66597 32918 ft 550 kts 30°
2026-05-08 09:25 25.49114 -95.61968 32927 ft 550 kts 30°
2026-05-08 09:26 25.55490 -95.57357 32910 ft 551 kts 29°
2026-05-08 09:26 25.61887 -95.52676 32912 ft 552 kts 33°
2026-05-08 09:27 25.67624 -95.46941 32917 ft 557 kts 43°
2026-05-08 09:27 25.73112 -95.40877 32916 ft 557 kts 42°
2026-05-08 09:28 25.78608 -95.34827 32917 ft 557 kts 42°
2026-05-08 09:28 25.84092 -95.28767 32918 ft 556 kts 42°
2026-05-08 09:29 25.89543 -95.22731 32934 ft 556 kts 42°
2026-05-08 09:29 25.95013 -95.16664 32931 ft 555 kts 42°
2026-05-08 09:30 26.00485 -95.10587 32926 ft 555 kts 42°
2026-05-08 09:30 26.05939 -95.04522 32924 ft 555 kts 42°
2026-05-08 09:31 26.11357 -94.98488 32925 ft 554 kts 42°
2026-05-08 09:31 26.16808 -94.92410 32921 ft 554 kts 42°
2026-05-08 09:32 26.22265 -94.86316 32919 ft 555 kts 42°
2026-05-08 09:32 26.27722 -94.80213 32922 ft 556 kts 42°
2026-05-08 09:33 26.33179 -94.74102 32926 ft 556 kts 42°
2026-05-08 09:33 26.38607 -94.68014 32934 ft 557 kts 42°
2026-05-08 09:34 26.44062 -94.61888 32942 ft 557 kts 42°
2026-05-08 09:34 26.49519 -94.55751 32960 ft 557 kts 42°
2026-05-08 09:35 26.54985 -94.49594 32935 ft 558 kts 42°
2026-05-08 09:35 26.60449 -94.43432 32937 ft 559 kts 42°
2026-05-08 09:36 26.65887 -94.37289 32938 ft 559 kts 42°
2026-05-08 09:36 26.71357 -94.31102 32940 ft 559 kts 42°
2026-05-08 09:37 26.76819 -94.24914 32945 ft 559 kts 42°
2026-05-08 09:37 26.82286 -94.18713 32951 ft 559 kts 42°
2026-05-08 09:38 26.87742 -94.12513 32952 ft 558 kts 42°
2026-05-08 09:38 26.93184 -94.06321 32953 ft 558 kts 42°
2026-05-08 09:39 26.98592 -94.00160 32941 ft 557 kts 42°
2026-05-08 09:39 27.04028 -93.93956 32940 ft 556 kts 43°
2026-05-08 09:40 27.09451 -93.87763 32939 ft 556 kts 43°
2026-05-08 09:40 27.14872 -93.81561 32932 ft 556 kts 43°
2026-05-08 09:41 27.20256 -93.75391 32944 ft 556 kts 43°
2026-05-08 09:41 27.25675 -93.69174 32944 ft 556 kts 43°
2026-05-08 09:42 27.31090 -93.62953 32942 ft 556 kts 43°
2026-05-08 09:42 27.36500 -93.56728 32945 ft 557 kts 43°
2026-05-08 09:43 27.41882 -93.50525 32953 ft 557 kts 43°
2026-05-08 09:43 27.47305 -93.44268 32922 ft 559 kts 43°
2026-05-08 09:44 27.52742 -93.37983 32936 ft 560 kts 43°
2026-05-08 09:44 27.58192 -93.31675 32948 ft 561 kts 43°
2026-05-08 09:45 27.63604 -93.25401 32954 ft 562 kts 43°
2026-05-08 09:45 27.69060 -93.19066 32963 ft 563 kts 43°
2026-05-08 09:46 27.74515 -93.12725 32965 ft 563 kts 43°
2026-05-08 09:46 27.79962 -93.06384 32964 ft 563 kts 43°
2026-05-08 09:47 27.85404 -93.00040 32979 ft 561 kts 43°
2026-05-08 09:47 27.90829 -92.93704 32969 ft 560 kts 43°
2026-05-08 09:48 27.96240 -92.87376 32963 ft 559 kts 43°
2026-05-08 09:48 28.01642 -92.81050 32957 ft 558 kts 43°
2026-05-08 09:49 28.07005 -92.74758 32947 ft 558 kts 43°
2026-05-08 09:49 28.12394 -92.68427 32943 ft 558 kts 43°
2026-05-08 09:50 28.17753 -92.62111 32942 ft 559 kts 43°
2026-05-08 09:50 28.23148 -92.55742 32950 ft 559 kts 43°
2026-05-08 09:51 28.28544 -92.49363 32958 ft 560 kts 43°
2026-05-08 09:51 28.33941 -92.42976 32964 ft 561 kts 43°
2026-05-08 09:52 28.39303 -92.36623 32986 ft 561 kts 43°
2026-05-08 09:52 28.44691 -92.30226 32990 ft 560 kts 43°
2026-05-08 09:53 28.50070 -92.23830 32982 ft 559 kts 43°
2026-05-08 09:53 28.55432 -92.17445 32977 ft 558 kts 43°
2026-05-08 09:54 28.60784 -92.11062 32967 ft 557 kts 43°
2026-05-08 09:54 28.66124 -92.04682 32941 ft 557 kts 43°
2026-05-08 09:55 28.71471 -91.98285 32937 ft 558 kts 43°
2026-05-08 09:55 28.76791 -91.91909 32951 ft 559 kts 43°
2026-05-08 09:56 28.82160 -91.85464 32937 ft 562 kts 43°
2026-05-08 09:56 28.87548 -91.78988 32962 ft 564 kts 43°
2026-05-08 09:57 28.95667 -91.69205 32982 ft 567 kts 42°
2026-05-08 09:57 29.01107 -91.62641 32968 ft 570 kts 42°
2026-05-08 09:58 29.06526 -91.56088 32983 ft 571 kts 42°
2026-05-08 09:58 29.11983 -91.49479 32990 ft 571 kts 42°
2026-05-08 09:59 29.17434 -91.42865 33005 ft 571 kts 43°
2026-05-08 09:59 29.22879 -91.36249 33001 ft 570 kts 43°
2026-05-08 10:00 29.28317 -91.29629 32999 ft 570 kts 42°
2026-05-08 10:00 29.33711 -91.23052 32991 ft 569 kts 42°
2026-05-08 10:01 29.39130 -91.16435 32991 ft 568 kts 42°
2026-05-08 10:01 29.44546 -91.09810 32977 ft 568 kts 42°
2026-05-08 10:02 29.47265 -91.06482 33150 ft 572 kts 42°
2026-05-08 10:02 29.49985 -91.03147 33545 ft 572 kts 42°
2026-05-08 10:02 29.52707 -90.99807 33934 ft 573 kts 42°
2026-05-08 10:02 29.55431 -90.96462 34238 ft 574 kts 42°
2026-05-08 10:03 29.58124 -90.93152 34573 ft 574 kts 42°
2026-05-08 10:03 29.60856 -90.89792 34890 ft 575 kts 42°
2026-05-08 10:03 29.63589 -90.86429 34997 ft 575 kts 42°
2026-05-08 10:03 29.66184 -90.82921 34997 ft 575 kts 49°
2026-05-08 10:04 29.70508 -90.75132 35003 ft 580 kts 56°
2026-05-08 10:04 29.74666 -90.67224 35004 ft 581 kts 55°
2026-05-08 10:05 29.78854 -90.59266 35003 ft 581 kts 56°
2026-05-08 10:05 29.83031 -90.51289 35034 ft 581 kts 56°
2026-05-08 10:06 29.87204 -90.43295 34992 ft 583 kts 56°
2026-05-08 10:06 29.91378 -90.35282 34999 ft 584 kts 56°
2026-05-08 10:07 29.95561 -90.27238 35010 ft 584 kts 56°
2026-05-08 10:07 29.99735 -90.19193 35009 ft 585 kts 56°
2026-05-08 10:08 30.03886 -90.11176 35020 ft 585 kts 56°
2026-05-08 10:08 30.08054 -90.03112 35016 ft 585 kts 56°
2026-05-08 10:09 30.12218 -89.95038 35050 ft 585 kts 56°
2026-05-08 10:09 30.16384 -89.86945 35001 ft 586 kts 56°
2026-05-08 10:10 30.20543 -89.78848 35013 ft 586 kts 56°
2026-05-08 10:10 30.24680 -89.70778 35008 ft 587 kts 56°
2026-05-08 10:11 30.28833 -89.62659 35017 ft 587 kts 56°
2026-05-08 10:11 30.32988 -89.54521 35018 ft 587 kts 56°
2026-05-08 10:12 30.37138 -89.46376 35016 ft 587 kts 56°
2026-05-08 10:12 30.41282 -89.38224 35009 ft 588 kts 56°
2026-05-08 10:13 30.45435 -89.30039 35012 ft 589 kts 56°
2026-05-08 10:13 30.49585 -89.21842 35019 ft 589 kts 56°
2026-05-08 10:14 30.53699 -89.13700 35024 ft 589 kts 56°
2026-05-08 10:14 30.57834 -89.05498 35012 ft 589 kts 56°
2026-05-08 10:15 30.61966 -88.97288 35012 ft 588 kts 56°
2026-05-08 10:15 30.66092 -88.89068 35017 ft 588 kts 56°
2026-05-08 10:16 30.69511 -88.82246 35031 ft 587 kts 56°
2026-05-08 10:16 30.74277 -88.72715 35038 ft 586 kts 56°
2026-05-08 10:17 30.77706 -88.65844 35029 ft 586 kts 56°